CAPE
81 140 947 1134 1146 1117 815 635 837 1233 1230 951 592 553 537 551 612 615 698 922 1042 1172 1211 1325 1211 1107 1018 873 1099 1095 1102 1282 1346 1278 1411 1358 986 1054 1482 1278 1293 1082 1472
82 268 1362 829 1364 888 1009 1255 780 717 1432 1301 770 629 592 541 573 635 641 630 749 907 1183 1303 1019 1116 936 956 1255 1280 1129 1418 1530 1403 1121 1040 1138 1315 1427 1370 1364 1203 1205
182 502 1029 947 814 892 1444 1612 1075 1376 1380 1412 933 708 633 608 609 659 690 719 718 980 1147 1112 1105 1040 1075 1144 1392 1384 1349 1315 1191 1267 1130 842 963 1508 1490 1594 1443 1574 1261
481 636 665 856 845 1225 1482 1623 919 1377 1172 1273 1137 785 677 681 706 714 738 736 761 846 1055 1188 1322 1361 1421 1494 1480 1442 1446 1307 1146 991 795 817 1084 1560 1539 1647 1583 1515 1400
768 552 616 927 1395 1496 1380 1436 1022 887 1331 1398 1410 1247 1005 811 776 792 866 894 1060 1129 1221 1331 1330 1199 1303 1480 1500 1423 1401 1357 1021 739 656 600 978 1543 1354 1688 1539 1497 1413
624 603 651 801 1576 1543 1339 918 684 789 1387 1527 1568 1488 1134 910 887 845 1073 1049 800 1087 1150 1019 1194 1219 1194 1422 1585 1582 1643 1371 709 486 485 806 958 1686 1685 1692 1598 1486 1410
433 437 760 896 1369 1431 1427 1065 780 1304 1878 1650 1531 1333 1184 1011 901 1127 1025 1135 759 1047 1226 1029 1108 1154 1164 1166 1291 1472 1550 887 383 374 473 734 826 1816 1743 1680 1619 1475 1355
35 209 504 757 917 1115 1178 1167 1359 1559 2001 1839 1736 1494 1220 932 889 1082 1120 1091 1077 817 948 989 1102 1001 1117 1247 1202 1333 1111 559 279 340 412 425 884 1645 1702 1639 1575 1437 1270
0 0 0 18 439 607 897 972 1117 1873 1621 1357 1301 1396 1049 925 888 944 810 746 598 701 898 1097 1129 1024 1030 1043 1182 1212 659 274 189 206 256 269 987 1412 1422 1538 1451 1290 1179
0 0 0 1 0 0 620 769 811 1432 1130 1064 1008 900 648 498 558 675 468 458 378 421 528 925 1125 991 741 648 543 481 378 122 136 94 107 227 1093 1334 1334 1397 1338 1135 901
0 0 1 1 1 0 0 295 817 1003 967 879 717 551 300 36 48 200 251 123 168 161 194 482 804 652 370 191 132 20 46 17 39 43 61 304 1376 1368 1357 1393 1408 1092 876
0 0 0 1 2 3 1 5 164 146 566 609 410 83 0 0 0 0 0 51 130 88 73 117 506 183 0 1 0 19 2 41 33 29 55 375 1215 1173 1287 1204 1027 1018 878
0 0 0 1 2 4 4 3 6 25 15 21 42 0 0 0 0 0 0 0 0 0 0 0 34 2 1 0 1 0 1 22 24 22 59 349 842 957 1186 834 916 877 500
0 0 0 1 1 2 4 5 6 2 3 0 0 0 0 0 0 1 0 0 0 0 0 0 0 0 0 0 0 0 0 0 10 30 52 242 243 456 830 806 585 358 255
0 0 0 0 2 2 4 4 5 6 0 0 0 0 0 0 0 0 0 0 0 0 1 0 1 1 1 1 0 0 1 0 0 16 134 8 12 0 147 350 320 305 238
0 0 0 0 1 3 3 3 3 2 10 0 1 0 0 0 0 0 0 0 0 1 0 0 0 0 1 0 1 1 1 0 0 14 26 22 11 0 165 230 283 271 204
0 0 0 0 0 2 3 5 2 2 1 2 0 0 0 0 0 0 0 0 0 1 2 1 1 1 0 1 0 1 0 0 0 0 56 110 79 55 138 230 203 212 133
0 0 0 0 1 0 1 4 5 1 1 12 0 0 0 0 0 0 0 0 0 1 3 0 1 1 0 1 1 1 1 0 0 1 0 21 45 43 133 157 189 166 78
0 0 1 1 1 2 2 3 3 2 2 12 0 0 0 0 0 0 0 0 0 1 0 0 0 0 0 1 1 0 1 1 1 1 0 0 0 0 0 2 15 22 39
0 0 0 2 3 3 3 1 2 4 3 1 6 0 0 0 0 0 0 0 0 0 1 0 0 0 0 0 1 1 0 1 1 0 0 0 0 0 0 0 0 5 19
0 0 0 2 4 7 5 3 3 6 2 1 5 5 0 0 0 0 0 0 0 0 0 0 0 0 0 0 0 0 0 0 0 0 1 0 0 0 0 0 0 0 10
0 0 1 1 5 7 9 8 7 5 3 6 3 2 1 0 0 0 0 0 0 0 0 0 0 0 0 0 0 0 0 0 0 0 0 0 0 0 0 0 0 0 0
0 0 2 4 5 5 6 6 4 0 0 5 1 4 2 3 0 0 0 0 0 0 0 0 0 0 0 0 0 0 0 0 0 0 0 0 0 0 0 0 0 0 0
0 0 0 2 5 6 3 2 2 5 4 3 8 8 6 0 5 1 0 0 0 0 0 0 0 0 0 0 0 0 0 0 0 0 0 0 0 0 0 0 0 0 0
0 0 0 0 0 2 0 1 2 2 3 3 6 5 5 5 7 1 1 0 0 0 0 0 0 0 0 0 0 0 0 0 0 0 0 0 0 0 0 0 0 0 0
0 0 0 0 0 1 1 0 1 0 1 2 1 3 6 5 5 1 1 0 0 0 0 0 0 0 0 0 0 0 0 0 0 0 0 0 0 0 0 0 0 0 0
CIN
-458 -423 -152 -119 -93 -84 -84 -76 -46 -8 -2 -12 -26 -29 -35 -30 -21 -20 -12 0 0 0 0 0 0 0 0 0 0 0 -1 0 -1 -1 -1 -3 0 0 0 0 -1 -2 0
-460 -331 -108 -143 -82 -102 -68 -26 -46 -40 0 0 -15 -14 -17 -21 -17 -12 -9 -5 0 0 0 0 0 0 0 0 0 -1 -3 -2 -2 -9 -12 -15 -7 0 0 -1 -2 -1 -2
-426 -292 -152 -141 -142 -108 -34 -5 -20 -3 -1 0 -14 -17 -9 -7 -6 -4 0 0 0 0 0 0 0 0 0 0 -1 -2 -2 -6 -11 -17 -19 -26 -10 0 -2 -1 -1 -1 0
-328 -286 -227 -159 -131 -71 -28 -4 -29 -5 -7 -2 -4 -16 -11 -2 0 0 0 0 0 0 0 -1 0 0 -1 -1 -1 -1 -2 -5 -14 -31 -39 -38 -12 0 0 0 0 0 -3
-257 -280 -229 -153 -83 -53 -37 -13 -19 -25 -2 0 0 0 -1 0 0 0 0 0 0 0 -1 -2 -2 -2 -2 -1 -1 0 -1 -7 -29 -49 -60 -61 -27 -2 0 0 0 0 -1
-219 -229 -201 -158 -60 -41 -34 -44 -41 -18 0 0 0 0 0 0 0 0 0 0 -3 -1 -1 -4 -4 -1 -2 -1 -2 -1 0 -4 -43 -88 -80 -40 -32 -1 0 0 0 0 0
-199 -224 -124 -88 -46 -29 -14 -18 -16 -1 -1 -1 -1 -1 0 0 0 0 -1 -1 -5 -1 0 -1 -1 -1 -2 -2 -1 -1 0 -15 -108 -117 -64 -36 -37 0 0 0 0 0 0
-75 -106 -54 -44 -34 -26 -15 -12 -5 -2 0 -1 0 0 0 0 0 0 0 0 0 -2 0 0 0 -2 -2 -1 0 -1 -5 -42 -107 -107 -78 -60 -27 0 0 0 0 0 0
0 0 0 -23 -12 -11 -15 -20 -8 -2 -1 -5 -3 -1 -1 -1 -1 0 -2 -1 -3 -1 -2 -1 0 -1 -2 -2 -1 -3 -23 -85 -105 -105 -108 -103 -15 0 0 0 0 0 0
0 0 0 0 0 0 -9 -9 -19 -6 -6 -13 -7 -6 -4 -3 -3 -2 -5 -4 -7 -7 -6 -1 -1 -1 -4 -8 -20 -32 -54 -117 -108 -121 -139 -96 -15 -1 0 0 0 -1 0
0 0 0 0 0 0 0 -20 -11 -14 -13 -15 -18 -17 -22 -35 -11 -14 -8 -18 -14 -20 -18 -6 -2 -5 -14 -32 -74 -133 -176 -209 -195 -169 -156 -75 -4 -1 0 0 0 0 0
0 0 0 0 0 0 0 0 -72 -88 -27 -23 -44 -112 0 0 0 0 0 -5 -9 -21 -29 -19 -4 -14 0 0 0 -122 -39 -156 -196 -161 -150 -68 -6 -2 0 0 0 0 0
0 0 0 0 0 0 0 0 0 -181 -239 -79 -169 -23 0 0 0 0 0 0 0 0 0 0 -32 -7 0 0 0 0 -11 -152 -161 -144 -135 -57 -11 -3 0 0 0 0 0
0 0 0 0 0 0 0 0 0 0 -280 0 0 0 0 0 0 0 0 0 0 0 0 0 0 0 0 0 0 0 -1 0 -120 -119 -120 -35 -46 -23 0 0 0 0 -10
0 0 0 0 0 0 0 0 0 0 0 0 0 0 0 0 0 0 0 0 0 0 0 -1 0 0 0 0 0 0 0 0 0 -26 -83 -81 -142 0 -13 0 0 0 0
0 0 0 0 0 0 0 0 0 0 0 0 0 0 0 0 0 0 0 0 0 0 -1 0 0 0 0 0 0 0 0 0 0 -17 -88 -93 -121 0 -9 0 0 0 0
0 0 0 0 0 0 0 0 0 0 0 0 0 0 0 0 0 0 0 0 0 0 -6 0 -47 0 0 0 0 0 0 0 0 0 -30 -8 -7 -10 0 0 0 0 0
0 0 0 0 0 0 0 0 0 0 0 0 0 0 0 0 0 0 0 0 0 -7 -4 0 0 0 0 0 0 0 0 0 0 0 0 -10 -4 -22 0 0 0 0 0
0 0 0 0 0 0 0 0 0 0 0 0 0 0 0 0 0 0 0 0 0 0 0 0 0 0 0 0 0 0 0 0 0 0 0 0 0 0 0 -1 -14 -1 0
0 0 0 0 0 0 0 0 0 0 0 0 0 0 0 0 0 0 0 0 0 0 0 0 0 0 0 0 0 0 0 0 0 0 0 0 0 0 0 0 0 -7 -3
0 0 0 0 0 0 0 0 0 0 0 0 0 0 0 0 0 0 0 0 0 0 0 0 0 0 0 0 0 0 0 0 0 0 0 0 0 0 0 0 0 0 -6
0 0 0 0 0 0 0 0 0 0 0 0 0 0 0 0 0 0 0 0 0 0 0 0 0 0 0 0 0 0 0 0 0 0 0 0 0 0 0 0 0 0 0
0 0 0 0 0 0 0 0 0 0 0 0 0 0 0 0 0 0 0 0 0 0 0 0 0 0 0 0 0 0 0 0 0 0 0 0 0 0 0 0 0 0 0
0 0 0 0 0 0 0 0 0 0 0 0 0 0 0 0 0 0 0 0 0 0 0 0 0 0 0 0 0 0 0 0 0 0 0 0 0 0 0 0 0 0 0
0 0 0 0 0 0 0 0 0 0 0 0 0 0 0 0 0 0 0 0 0 0 0 0 0 0 0 0 0 0 0 0 0 0 0 0 0 0 0 0 0 0 0
0 0 0 0 0 0 0 0 0 0 0 0 0 0 0 0 0 0 0 0 0 0 0 0 0 0 0 0 0 0 0 0 0 0 0 0 0 0 0 0 0 0 0
Wind_Speed
3 5 17 15 15 15 16 15 14 12 12 13 14 14 13 13 13 11 10 10 9 8 8 8 8 8 6 4 7 7 8 7 6 8 8 8 11 13 14 14 13 11 17
6 6 13 16 14 16 15 14 14 13 11 11 13 13 13 12 11 11 10 9 9 8 7 7 8 7 5 5 7 7 7 6 7 9 9 7 9 12 14 12 13 13 17
7 10 11 17 17 16 13 13 13 13 11 11 12 12 11 11 10 10 10 9 8 8 8 7 8 7 6 6 7 7 7 6 7 10 10 5 5 13 15 13 14 16 17
5 8 13 16 15 14 13 13 14 14 13 11 11 11 10 10 10 9 9 9 9 7 7 7 7 7 6 7 6 7 7 7 8 9 5 5 8 13 14 16 17 17 17
5 3 7 15 12 13 13 12 13 14 12 11 10 10 10 10 10 10 10 9 8 6 4 7 6 5 7 7 8 7 8 8 9 7 6 5 5 12 15 16 16 17 17
3 2 6 14 11 11 12 13 14 13 13 11 10 10 10 10 10 9 8 8 7 6 4 4 7 6 6 7 9 10 11 9 9 6 5 7 6 15 17 16 16 16 17
8 6 3 8 7 7 8 10 11 9 12 10 10 10 10 9 8 8 7 6 6 5 6 6 7 8 7 6 6 6 10 10 6 5 4 4 5 17 17 17 18 19 18
19 12 8 4 6 6 8 10 11 11 10 11 9 9 9 8 7 7 7 7 8 8 8 8 7 8 8 7 8 8 11 9 5 6 5 4 8 16 18 18 19 19 20
24 24 23 21 11 8 7 10 10 10 12 10 9 8 7 7 6 6 6 6 6 7 8 7 7 8 7 7 8 11 10 8 5 3 5 3 8 17 19 19 19 22 23
23 22 24 22 21 22 7 8 10 10 11 11 9 8 6 4 5 6 6 5 4 3 6 6 7 8 8 8 8 9 9 7 5 4 3 3 11 17 20 20 21 24 26
23 24 22 23 22 21 20 8 7 9 8 9 9 8 4 2 2 4 4 6 5 4 5 5 6 9 10 8 8 9 7 2 3 3 3 8 14 19 21 22 24 25 26
26 24 21 22 22 21 16 19 6 5 1 1 4 4 4 2 0 1 1 3 6 5 5 5 6 9 9 4 3 6 2 3 2 4 4 11 14 18 23 24 26 26 27
21 18 22 21 20 19 17 13 8 2 2 1 3 4 3 3 1 1 1 2 2 3 1 3 3 3 4 5 3 2 2 3 2 3 4 10 12 17 24 26 27 28 28
22 22 22 23 20 19 14 11 14 7 3 2 2 4 3 3 2 2 1 2 2 2 2 2 2 4 5 5 5 4 2 2 1 2 4 14 16 10 21 30 32 30 27
23 23 22 22 21 19 18 13 13 13 5 4 4 4 3 3 3 3 2 2 2 2 3 3 3 4 4 5 4 4 3 3 2 2 4 11 16 19 7 27 28 27 27
22 23 22 22 21 20 17 18 14 11 12 4 4 6 6 4 4 3 2 3 3 4 3 4 5 5 3 5 6 5 4 3 3 4 7 9 19 21 21 20 24 26 27
19 21 22 22 21 20 19 17 13 12 13 7 5 6 7 6 5 5 4 4 4 5 5 5 6 5 6 4 6 6 5 5 5 4 6 8 12 20 22 24 23 26 27
20 22 21 19 21 23 20 16 13 13 11 11 4 5 7 7 6 5 3 3 3 4 5 6 7 6 6 5 6 6 4 6 7 8 6 11 10 9 15 24 24 26 26
19 21 23 22 21 23 20 16 16 16 11 9 4 4 6 7 7 5 4 4 4 3 5 6 6 8 8 7 8 7 7 7 7 7 7 12 13 11 10 17 20 22 22
18 19 20 18 21 21 15 15 14 11 11 12 10 4 4 5 10 5 4 4 5 5 4 6 10 7 9 9 9 10 8 7 7 7 10 9 13 11 11 12 9 10 21
18 20 21 22 22 17 15 16 15 14 16 12 11 13 5 5 6 8 5 5 5 7 8 11 10 14 7 10 11 10 10 8 12 9 8 9 14 9 12 10 6 7 9
19 19 21 20 21 16 13 13 10 13 9 14 10 15 7 6 6 7 7 7 8 7 11 10 14 8 5 7 7 9 4 4 8 11 11 8 12 7 11 11 10 9 7
20 20 19 20 20 17 18 13 12 10 9 10 14 13 12 15 7 7 8 7 8 9 11 13 14 15 11 2 4 6 5 3 3 7 11 8 11 8 8 9 10 9 9
18 18 19 19 19 16 18 14 16 11 12 11 13 14 14 17 10 7 9 8 10 8 11 12 12 14 11 13 2 3 1 11 6 5 5 7 8 9 8 7 8 7 8
16 16 16 17 18 18 17 16 12 13 11 11 12 18 16 15 8 8 10 11 10 8 10 12 12 10 9 9 3 5 11 5 2 8 6 1 6 6 6 6 6 7 6
14 16 17 19 19 19 18 17 16 16 15 12 15 14 13 12 11 7 8 11 12 10 12 11 10 12 11 8 6 10 11 9 12 9 7 4 6 4 4 5 5 5 4
Wind_Direction
222 190 173 173 173 169 168 170 167 160 153 146 141 142 140 138 141 144 147 152 160 172 169 168 154 160 144 144 157 166 153 150 161 150 120 132 130 129 125 127 117 115 115
147 171 174 176 179 177 174 173 173 170 161 154 149 147 147 148 145 147 152 154 165 178 169 157 157 163 159 140 161 148 155 158 151 162 140 142 142 136 132 134 120 121 118
155 170 177 183 182 181 178 176 176 169 168 161 156 154 155 153 154 151 157 161 170 183 164 162 164 173 170 139 129 147 147 142 143 138 142 147 142 145 140 135 131 127 122
173 173 176 185 185 183 184 182 182 165 172 168 163 161 161 162 162 163 165 172 178 190 182 167 188 174 161 147 146 151 149 142 144 135 138 151 147 155 146 135 142 136 130
158 156 173 183 185 188 187 185 189 176 175 177 173 168 171 174 175 176 180 183 187 191 212 185 172 179 165 161 158 166 156 145 144 141 153 157 149 159 153 148 147 143 139
25 106 184 188 187 192 190 191 193 191 178 184 181 176 178 187 189 186 188 197 194 181 212 197 167 182 167 180 169 180 164 151 143 143 156 162 153 162 157 149 147 145 140
8 15 344 204 195 196 200 199 205 210 181 179 180 184 184 191 200 196 189 195 204 193 206 206 196 191 183 177 190 183 146 152 148 143 140 150 167 163 156 151 151 148 142
10 355 349 297 259 216 209 210 201 203 205 179 185 184 194 197 205 207 197 200 209 201 209 207 204 198 185 187 188 175 156 158 153 147 154 170 195 169 159 157 153 146 140
14 12 1 349 325 307 258 222 221 220 201 188 181 180 191 202 199 204 202 206 209 209 209 195 195 193 177 180 181 160 161 154 149 162 160 173 203 174 164 159 153 147 141
12 9 2 353 351 342 299 264 229 213 198 183 180 177 179 220 208 214 198 224 202 218 227 203 190 180 154 133 135 148 160 165 157 160 160 186 198 175 163 158 152 144 136
7 3 358 352 347 342 332 300 263 227 192 180 173 164 143 156 236 241 213 228 227 230 255 233 200 179 129 132 134 142 128 130 152 165 172 196 191 178 166 157 149 143 126
355 355 356 349 345 340 339 328 298 317 329 175 128 124 133 144 314 307 308 272 251 244 257 267 236 143 113 113 119 127 140 151 171 183 192 198 191 181 166 153 143 132 127
348 350 351 346 344 343 339 328 307 276 279 46 113 129 141 121 127 97 309 327 323 322 330 330 133 120 127 148 129 126 187 180 202 217 212 197 186 189 173 156 138 129 122
351 351 347 346 343 345 335 331 322 295 209 235 181 171 161 153 182 171 197 272 291 284 261 130 122 121 128 135 135 127 195 123 217 190 213 136 110 173 197 153 126 127 119
352 349 349 343 343 344 339 328 324 321 282 205 182 191 161 171 178 186 219 225 243 259 196 160 137 129 137 114 104 136 104 93 59 230 156 172 140 131 33 97 118 119 122
348 348 346 346 343 341 340 331 314 311 303 257 208 186 177 174 168 176 186 224 230 221 185 163 148 145 118 127 109 105 77 66 68 217 133 148 148 142 139 131 131 131 126
346 344 348 345 345 340 334 322 320 314 306 257 215 201 176 173 177 175 177 203 226 210 175 162 133 131 108 99 89 83 77 40 43 51 137 140 130 137 147 147 140 132 128
348 348 344 347 346 342 335 328 322 306 302 285 219 187 185 170 175 179 172 197 213 201 170 156 142 110 100 93 88 60 46 53 52 42 38 141 133 132 142 137 136 129 129
350 348 345 348 349 342 335 332 318 316 309 307 262 199 197 175 167 179 171 194 196 176 161 147 124 129 120 97 82 64 35 38 46 53 61 90 95 99 101 97 115 118 125
351 349 347 346 347 344 341 335 329 327 338 326 314 272 220 225 162 171 168 183 189 153 134 121 120 109 117 115 95 67 48 33 42 49 44 61 90 85 88 90 94 115 122
355 351 351 348 348 346 349 343 341 333 326 310 321 327 266 236 189 164 170 182 175 160 148 141 132 128 118 142 103 82 62 39 43 36 44 47 63 78 86 85 77 96 106
349 350 347 349 346 344 345 335 327 318 308 304 299 329 300 265 216 174 167 180 168 141 140 147 147 137 130 178 136 122 112 29 34 34 40 39 57 56 67 73 74 76 80
351 347 345 343 341 342 341 334 329 317 329 335 338 325 326 319 242 196 173 172 161 161 160 161 158 151 155 193 105 133 149 142 113 12 27 20 58 51 57 67 68 71 73
344 341 341 339 338 340 341 339 337 332 326 320 312 309 315 286 257 207 176 170 169 167 165 170 172 164 158 157 132 43 342 122 127 95 16 15 42 45 47 55 68 58 77
341 342 338 334 336 336 341 340 334 328 327 309 324 317 303 324 252 222 185 168 173 170 175 171 174 173 174 153 139 142 108 72 26 128 119 144 57 33 26 39 59 62 47
340 343 340 338 337 339 339 334 333 330 328 323 335 320 324 316 320 245 199 177 177 175 174 176 181 169 165 131 137 147 154 159 164 135 125 134 109 51 27 27 51 54 49